Preview of NWS' New Version of Forecast
This preview is not operational and should not be used for support decisions.
Latest weather observations around

Fort Myers, Southwest Florida International Airport (KRSW)

Using English Units (Switch to International System of Units)
Date/ Time (EST) Wind (mph) Vis. (mi) Weather Sky Cond. Temp (°F) Rel. Humidity Wind Chill (°F) Heat Index (°F) Pressure Precip. (in)
Air Dwpt 6 hour Altimeter (inHg) Sea level (inHg) 1 hr 3 hr 6 hr
Max Min
Dec 13 07:53 E 6 10 Partly Cloudy SCT075 59 56     90%     30.13 30.13      
Dec 13 06:53 ENE 7 10 Clear CLR 58 55     90%     30.12 30.11      
Dec 13 05:53 E 11 10 Mostly Cloudy BKN070 59 55     87%     30.12 30.11      
Dec 13 04:53 NE 9 10 Cloudy OVC065 59 55     87%     30.11 30.11      
Dec 13 03:53 ENE 9 10 Mostly Cloudy BKN065 58 55     90%     30.12 30.11      
Dec 13 02:53 ENE 5 10 Cloudy OVC065 58 55     90%     30.12 30.11      
Dec 13 01:53 ENE 7 10 Mostly Clear FEW060 57 56     96%     30.14 30.13      
Dec 13 00:53 ENE 6 10 Mostly Clear FEW060 58 56     93%     30.16 30.15      
Dec 12 23:53 ENE 7 10 Mostly Cloudy BKN060 59 57     93%     30.17 30.16      
Dec 12 22:53 ENE 6 10 Cloudy FEW047 OVC060 60 56     86%     30.21 30.2      
Dec 12 21:53 NE 5 10 Mostly Cloudy BKN060 60 55     83%     30.2 30.19      
Dec 12 20:53 E 6 10 Partly Cloudy SCT055 58 54     87%     30.19 30.18      
Dec 12 19:53 ENE 6 10 Clear CLR 61 54     78%     30.2 30.19      
Dec 12 18:53 E 7 10 Mostly Clear FEW050 60 55     83%     30.18 30.17      
Dec 12 17:53 ENE 6 10 Clear CLR 64 55     73%     30.19 30.18      
Dec 12 16:53 E 8 10 Clear CLR 69 52     54%     30.18 30.17      
Dec 12 15:53 E 10 10 Clear CLR 71 52     51%   70 30.17 30.16      
Dec 12 14:53 E 13 10 Clear CLR 71 52     51%   70 30.16 30.15      
Dec 12 13:53 ESE 14 10 Clear CLR 71 52     51%   70 30.18 30.17      
Dec 12 12:53 ENE 9 10 Clear CLR 69 52     54%     30.23 30.22      
Dec 12 11:53 NE 7 10 Clear CLR 66 50     56%     30.26 30.25      
Dec 12 09:53 NE 7 10 Clear CLR 55 44     66%     30.31 30.3      
Dec 12 08:53 NE 8 10 Clear CLR 50 43     77%     30.3 30.29      
Dec 12 07:53 NE 8 10 Clear CLR 45 42     90% 41   30.28 30.27      
Dec 12 06:53 NE 7 10 Clear CLR 44 42     93% 40   30.28 30.27      
Dec 12 05:53 NNE 5 10 Clear CLR 45 42     90% 43   30.26 30.25      
Dec 12 04:53 NNE 6 10 Mostly Clear FEW039 45 43     93% 42   30.25 30.24      
Dec 12 03:53 NNE 5 10 Clear CLR 45 43     93% 43   30.27 30.26      
Dec 12 02:53 N 3 10 Clear CLR 44 41     89% 43   30.27 30.26      
Dec 12 01:53 Calm 10 Clear CLR 44 42     93%     30.29 30.28      
Dec 12 00:53 NE 5 10 Clear CLR 44 43     96% 41   30.27 30.26      
Dec 11 23:53 Calm 10 Clear CLR 46 42     86%     30.3 30.29      
Dec 11 22:53 Calm 10 Clear CLR 47 43     86%     30.3 30.29      
Dec 11 21:53 NE 7 10 Clear CLR 49 43     80% 46   30.29 30.28      
Dec 11 20:53 NE 6 10 Clear CLR 50 44     80%     30.29 30.28      
Dec 11 19:53 NNE 7 10 Clear CLR 53 44     71%     30.28 30.27      
Dec 11 18:53 N 6 10 Clear CLR 54 44     69%     30.26 30.26      
Dec 11 17:53 N 6 10 Clear CLR 57 44     62%     30.24 30.24      
Dec 11 16:53 N 8 10 Clear CLR 60 43     53%     30.24 30.23      
Dec 11 15:53 NNW 8 10 Clear CLR 62 44     52%     30.23 30.22      
Dec 11 14:53 NNW 13 10 Mostly Clear FEW039 63 45     52%     30.22 30.22      
Dec 11 13:53 NW 11 10 Mostly Clear FEW035 61 45     56%     30.24 30.23      
Dec 11 12:53 N 13 10 Mostly Clear FEW032 61 46     58%     30.26 30.25      
Dec 11 11:53 NNW 14 10 Mostly Clear FEW031 60 45     57%     30.29 30.28      
Dec 11 10:53 NNW 10 10 Clear CLR 58 46     65%     30.31 30.3      
Dec 11 09:53 N 9 10 Clear CLR 56 46     69%     30.31 30.3      
Dec 11 08:53 N 8 10 Clear CLR 52 46     80%     30.31 30.3      
Dec 11 07:53 NE 5 10 Partly Cloudy SCT055 48 46     93% 46   30.29 30.29      
Dec 11 06:53 NNE 5 10 Clear CLR 48 47     96% 46   30.26 30.25      
Dec 10 21:53 NNE 5 10 Clear CLR 56 48     75%     30.17 30.16      
Dec 10 20:53 N 5 10 Cloudy OVC060 58 50     75%     30.16 30.15      
Dec 10 19:53 N 5 10 Mostly Cloudy BKN060 59 50     72%     30.15 30.14      
Dec 10 18:53 N 6 10 Mostly Clear FEW060 60 52     75%     30.13 30.12      
Dec 10 17:53 NNW 6 10 Cloudy OVC060 62 51     67%     30.1 30.09      
Dec 10 16:53 NW 8 10 Cloudy OVC065 65 52     63%     30.08 30.07      
Dec 10 15:53 NNW 8 10 Partly Cloudy SCT039 67 53     61%     30.07 30.06      
Dec 10 14:53 WNW 7 10 Cloudy BKN038 OVC060 69 54     59%     30.05 30.04      
Dec 10 13:53 6 10 Mostly Cloudy SCT033 BKN042 BKN060 67 54     63%     30.06 30.05      
Dec 10 12:53 NW 7 10 Cloudy BKN018 OVC055 67 55     66%     30.07 30.06      
Dec 10 11:53 NNW 6 10 Mostly Cloudy BKN020 BKN029 66 55     68%     30.09 30.09      
Dec 10 10:57 N 10 10 Mostly Cloudy BKN020 BKN029 67 56     68%     30.1        
Dec 10 10:53 NNW 10 10 Mostly Cloudy BKN024 66 56     70%     30.1 30.09      
Dec 10 10:13 N 6 10 Mostly Cloudy SCT019 SCT024 BKN055 65 57     76%     30.1        
Dec 10 09:53 N 8 10 Mostly Cloudy BKN016 BKN055 63 57     81%     30.1 30.09      
Dec 10 09:51 N 9 10 Mostly Cloudy BKN016 BKN055 64 57     77%     30.1        
Dec 10 08:53 N 8 10 Partly Cloudy SCT055 63 57     81%     30.07 30.06      
Dec 10 07:53 N 7 10 Partly Cloudy SCT050 62 57     84%     30.04 30.03      
Dec 10 06:53 NNW 6 10 Cloudy BKN044 OVC050 64 58     81%     30.02 30.01      
Dec 10 06:44 NNW 7 10 Cloudy BKN044 OVC050 64 58     81%     30.02        
Dec 10 06:41 NW 6 10 Cloudy BKN025 OVC050 64 58     81%     30.02        
Dec 10 05:53 NW 5 10 Cloudy BKN044 OVC050 65 58     78%     30 29.99      
Dec 10 04:53 NW 5 10 Cloudy OVC050 65 58     78%     29.98 29.97      
Dec 10 03:53 NW 9 10 Cloudy OVC050 66 61     84%     29.98 29.97      
Dec 10 02:53 WNW 3 10 Mostly Cloudy FEW035 BKN050 65 62     90%     29.97 29.96      
Dec 10 01:53 W 3 10 Partly Cloudy SCT050 66 63     90%     29.97 29.96      
Dec 10 00:53 NW 5 10 Cloudy FEW029 SCT035 OVC050 67 63     87%     29.98 29.97      
Dec 10 00:46 NW 6 10 Cloudy FEW025 SCT030 OVC050 67 63     87%     29.98        
Dec 10 00:14 WNW 5 10 Cloudy FEW024 BKN029 OVC047 67 64     90%     29.98        
Dec 09 23:53 WNW 5 10 Cloudy FEW022 BKN033 OVC050 67 64     90%     29.98 29.97      
Dec 09 23:03 NW 8 10 Cloudy SCT028 OVC035 68 65     90%     29.99        
Dec 09 22:53 NW 6 10 Cloudy FEW013 BKN024 OVC050 68 66     93%     29.99 29.98      
Dec 09 22:20 WNW 7 10 Cloudy FEW013 BKN024 OVC050 68 67     96%     29.98        
Dec 09 21:53 W 7 10 Cloudy FEW016 SCT030 OVC055 69 68     96%     29.98 29.97      
Dec 09 20:53 W 6 10 Partly Cloudy FEW018 SCT028 68 67     96%     29.97 29.96      
Dec 09 20:11 W 8 10 Mostly Cloudy SCT018 BKN050 68 67     96%     29.97        
Dec 09 19:53 W 6 10 Mostly Cloudy BKN018 68 67     96%     29.97 29.96      
Dec 09 19:29 WSW 6 10 Mostly Cloudy SCT022 BKN085 67 67     100%     29.97        
Dec 09 18:53 WSW 7 10 Mostly Cloudy BKN025 67 67     100%     29.96 29.95     0
Dec 09 17:53 WSW 7 10 Clear CLR 68 67     96%     29.95 29.94      
Dec 09 16:53 WSW 7 10 Cloudy FEW085 OVC100 69 67     93%     29.93 29.93 0    
Dec 09 15:53 W 7 10 Light Rain FEW070 BKN110 70 67     90%     29.94 29.93 0 0  
Dec 09 14:53 W 10 10 Light Rain FEW080 OVC100 71 68     90%   72 29.93 29.92 0    
Dec 09 13:53 W 10 3 Light Rain and Fog/Mist FEW009 OVC110 71 69     93%   72 29.95 29.94 0    
Dec 09 13:45 W 8 3 Light Rain and Fog/Mist FEW009 SCT032 BKN110 71 69     93%   72 29.94   0    
Dec 09 13:30 W 9 3 Light Rain and Fog/Mist FEW009 BKN030 BKN110 71 69     93%   72 29.95   0    
Dec 09 13:22 W 10 3 Light Rain and Fog/Mist FEW009 BKN030 OVC110 71 69     93%   72 29.96   0    
Dec 09 13:09 W 13 3 Rain and Fog/Mist SCT008 BKN026 OVC045 72 69     91%   73 29.96   0    
Dec 09 13:02 W 16 1.75 Heavy Rain and Fog/Mist BKN008 BKN026 OVC080 73 72     96%   75 29.97   0    
Dec 09 12:59 SW 15 6 Light Rain and Fog/Mist BKN008 BKN022 OVC075 74 73     97%   76 29.97   0    
Dec 09 12:53 SW 14 6 Rain and Fog/Mist SCT008 BKN043 OVC100 74 73     97%   76 29.97 29.96 0   0
Dec 09 12:36 SW 18 9 Light Rain SCT008 BKN032 BKN065 74 72     94%   75 29.97   0    
Dec 09 12:14 SW 22 9 Light Rain BKN009 BKN013 OVC070 74 73     97%   76 29.98   0    
Dec 09 12:05 SW 22 10 Light Rain BKN012 BKN070 75 73     94%   77 29.98   0    
Dec 09 11:53 WSW 18 10 Mostly Cloudy SCT012 BKN070 76 72     88%   77 29.99 29.98      
Dec 09 10:53 SSW 22 10 Clear and Windy CLR 77 71     82%   78 30 29.99      
Dec 09 10:37 SSW 18 10 Mostly Clear FEW017 77 71     82%   78 30        
Dec 09 09:53 S 17 10 Mostly Cloudy BKN017 76 71     85%   77 30.01 30      
Dec 09 09:51 S 14 10 Mostly Cloudy BKN017 75 72     89%   77 30.01        
Dec 09 09:17 S 17 10 Partly Cloudy SCT008 76 71     85%   77 29.99        
Dec 09 08:53 S 18 10 Clear CLR 74 71     91%   75 29.99 29.98      
Dec 09 07:53 S 14 10 Partly Cloudy SCT008 SCT016 71 70     96%   72 29.96 29.96      
Dec 09 06:53 S 9 10 Partly Cloudy SCT008 70        %     29.99 29.98      
Dec 09 05:53 SSE 8 10 Clear CLR 68        %     29.98 29.97      
Dec 09 04:53 SSE 6 10 Mostly Clear FEW048 68        %     29.99 29.98      
Dec 09 03:53 SSE 8 10 Clear CLR 68        %     30 29.99      
Dec 09 02:53 SSE 8 10 Mostly Clear FEW060 68        %     30.02 30.01      
Dec 09 01:53 SSE 7 10 Clear CLR 68        %     30.05 30.04      
Dec 09 00:53 SSE 8 10 Clear CLR 70        %     30.07 30.06      
Dec 08 23:53 SSE 8 10 Clear CLR 70        %     30.09 30.08      
Dec 08 22:53 SE 8 10 Clear CLR 70        %     30.1 30.09      
Dec 08 21:53 SE 6 10 Clear CLR 70        %     30.11 30.1      
Dec 08 20:53 SE 6 10 Clear CLR 72        %     30.1 30.09      
Dec 08 19:53 ESE 7 10 Mostly Cloudy BKN036 BKN060 72        %     30.1 30.09      
Dec 08 18:53 ENE 7 10 Cloudy OVC060 72        %     30.09 30.08     0
Dec 08 17:53 E 3 10 Clear CLR 75        %     30.08 30.07 0    
Dec 08 16:53 Calm 10 Mostly Clear FEW050 79        %     30.1 30.09      
Dec 08 15:53 S 7 10 Clear CLR 81        %     30.1 30.09      
Dec 08 14:53 S 7 10 Mostly Clear FEW050 81        %     30.11 30.1      
Dec 08 13:53 SSE 9 10 Mostly Clear FEW046 81        %     30.13 30.12      
Dec 08 12:53 SE 6 10 Partly Cloudy FEW043 SCT055 79        %     30.16 30.15      
Dec 08 11:53 SSE 10 10 Clear   79        %     30.19 30.18      
Dec 08 10:53 SE 9 10 Mostly Clear FEW055 77        %     30.23 30.22      
Dec 08 09:53 E 7 10 Mostly Clear FEW050 72        %     30.23 30.22      
Dec 08 08:53 E 7 10 Mostly Clear FEW050 64        %     30.23 30.22      
Dec 08 07:53 ENE 8 10 Clear CLR 58 56     93%     30.21 30.21      
Dec 08 06:53 NE 6 10 Clear CLR 56 54     93%     30.2 30.19      
Dec 08 05:53 Calm 10 Mostly Clear FEW044 57 55     93%     30.2 30.19      
Dec 08 04:53 NE 5 10 Mostly Cloudy FEW032 BKN043 58 55     90%     30.19 30.19      
Dec 08 03:53 NE 3 10 Mostly Clear FEW045 58 55     90%     30.19 30.19      
Dec 08 02:53 Calm 10 Clear CLR 58 55     90%     30.2 30.19      
Dec 08 01:53 NE 5 10 Clear CLR 59 56     90%     30.21 30.2      
Dec 08 00:53 ENE 6 10 Clear CLR 60 56     86%     30.23 30.22      
Dec 07 23:53 ENE 7 10 Clear CLR 61 57     87%     30.24 30.23      
Dec 07 22:53 E 8 10 Clear CLR 62 57     84%     30.26 30.25      
Dec 07 21:53 E 8 10 Clear CLR 63 56     78%     30.27 30.26      
Dec 07 20:53 ENE 7 10 Clear CLR 64 56     75%     30.27 30.26      
Dec 07 18:53 NE 7 10 Clear CLR 68 55     63%     30.25 30.24      
Dec 07 17:53 NE 5 10 Clear CLR 71 55     57%   71 30.24 30.23      
Dec 07 16:53 ENE 9 10 Clear CLR 75 55     50%   75 30.23 30.22      
Dec 07 15:53 E 10 10 Clear CLR 76 54     47%   75 30.23 30.22      
Dec 07 14:53 E 9 10 Mostly Clear FEW050 78 54     43%   78 30.23 30.22      
Dec 07 13:53 E 10 10 Mostly Clear FEW050 77 55     47%   77 30.25 30.24      
Dec 07 12:53 E 7 10 Clear CLR 76 54     47%   75 30.28 30.27      
Dec 07 11:53 E 11 10 Clear CLR 75 53     46%   74 30.31 30.3      
Dec 07 10:53 ENE 10 10 Mostly Clear FEW047 73        %     30.34 30.34      
Dec 07 09:53 ENE 9 10 Clear CLR 68        %     30.36 30.35      
Dec 07 08:53 NE 9 10 Clear CLR 62 53     72%     30.35 30.34      
Dec 07 07:53 NE 8 10 Clear CLR 55 51     86%     30.33 30.32      
Dec 07 06:53 NE 7 10 Mostly Clear FEW043 53 49     86%     30.32 30.31      
Dec 07 05:53 NE 6 10 Clear CLR 53 49     86%     30.31 30.3      
Dec 07 04:53 NE 6 10 Clear CLR 53 49     86%     30.29 30.28      
Dec 07 02:53 NE 6 10 Clear CLR 53 50     89%     30.27 30.27      
Dec 07 01:53 NE 7 10 Clear CLR 54 50     86%     30.29 30.28      
Dec 07 00:53 NE 5 10 Clear CLR 55 50     83%     30.3 30.29      
Dec 06 23:53 ENE 6 10 Clear CLR 56 50     80%     30.3 30.29      
Dec 06 22:53 NE 5 10 Clear CLR 58 50     75%     30.31 30.31      
Dec 06 21:53 ENE 6 10 Clear CLR 58 51     78%     30.31 30.3      
Dec 06 20:53 ENE 6 10 Clear CLR 60 51     72%     30.3 30.29      
Dec 06 19:53 ENE 5 10 Mostly Clear FEW049 61 51     70%     30.29 30.28      
Dec 06 18:53 ENE 6 10 Clear CLR 64 51     63%     30.27 30.27      
Dec 06 17:53 NE 5 10 Clear CLR 66 52     61%     30.26 30.25      
Dec 06 16:53 E 10 10 Clear CLR 71 51     49%   70 30.25 30.24      
Dec 06 15:53 E 13 10 Mostly Clear FEW050 73 51     46%   72 30.24 30.23      
Dec 06 14:53 E 11 10 Clear CLR 74 51     45%   73 30.23 30.22      
Dec 06 13:53 ENE 9 10 Clear CLR 72 51     48%   71 30.24 30.23      
Dec 06 12:53 ENE 9 10 Clear CLR 72 50     46%   71 30.26 30.25      
Dec 06 11:53 NE 10 10 Clear CLR 68 48     49%     30.29 30.28      
Dec 06 10:53 NNE 8 10 Clear CLR 63 46     54%     30.32 30.31      
Dec 06 09:53 NE 9 10 Clear CLR 58 42     55%     30.33 30.32      
Dec 06 08:53 NNE 9 10 Clear CLR 53 38     56%     30.32 30.31      
Dec 06 07:53 NNE 8 10 Clear CLR 48 35     61% 44   30.3 30.29      
Dec 06 06:53 NNE 7 10 Clear CLR 46 34     63% 42   30.28 30.27      
Dec 06 05:53 NNE 10 10 Clear CLR 46 35     65% 41   30.28 30.27      
Dec 06 04:53 N 9 10 Clear CLR 46 36     68% 41   30.27 30.26      
Dec 06 03:53 N 7 10 Clear CLR 47 36     65% 44   30.27 30.26      
Dec 06 02:53 NNE 8 10 Clear CLR 47 36     65% 43   30.27 30.26      
Dec 06 01:53 NNE 6 10 Clear CLR 48 36     63% 45   30.28 30.27      
Dec 06 00:53 NNE 7 10 Clear CLR 49 35     59% 46   30.28 30.27      
Dec 05 23:53 NNE 8 10 Clear CLR 50 34     54%     30.29 30.28      
Dec 05 22:53 NNE 8 10 Clear CLR 52 34     50%     30.28 30.27      
Dec 05 21:53 N 5 10 Clear CLR 52 34     50%     30.27 30.27      
Dec 05 20:53 NNE 5 10 Clear CLR 54 34     47%     30.26 30.26      
Dec 05 19:53 NNE 5 10 Clear CLR 56 32     40%     30.25 30.24      
Dec 05 18:53 NNE 8 10 Clear CLR 58 31     36%     30.22 30.21      
Dec 05 17:53 NNE 8 10 Clear CLR 60 30     32%     30.2 30.19      
Dec 05 16:53 NNE 11 10 Clear CLR 64 30     28%     30.18 30.17      
Dec 05 15:53 NNE 13 10 Clear CLR 66 28     24%     30.16 30.15      
Dec 05 14:53 NNE 10 10 Clear CLR 66        %     30.16 30.15      
Dec 05 13:53 N 14 10 Clear CLR 66        %     30.16 30.16      
Dec 05 12:53 N 15 10 Clear CLR 63 41     45%     30.18 30.17      
Dec 05 11:53 NNE 13 10 Mostly Clear FEW070 63 41     45%     30.2 30.19      
Dec 05 10:53 N 14 10 Cloudy OVC075 58 46     65%     30.21 30.2      
Dec 05 10:19 N 11 10 Cloudy OVC075 58 46     65%     30.21        
Dec 05 09:53 N 10 10 Cloudy OVC070 57        %     30.21 30.2      
Dec 05 08:53 N 13 10 Mostly Cloudy BKN065 59 46     62%     30.19 30.18      
Dec 05 07:53 N 13 10 Mostly Cloudy BKN070 59 47     64%     30.16 30.15      
Dec 05 06:53 N 11 10 Mostly Cloudy BKN060 60 51     72%     30.13 30.12      
Dec 05 05:53 N 13 10 Partly Cloudy SCT055 62 55     78%     30.1 30.09      
Dec 05 04:53 NE 6 10 Mostly Clear FEW120 64 55     73%     30.07 30.06      
Dec 05 03:53 N 8 10 Clear CLR 65 60     84%     30.06 30.05      
Dec 05 02:53 NNE 8 10 Mostly Cloudy SCT033 BKN080 67 63     87%     30.06 30.05      
Dec 05 02:38 NNE 7 10 Cloudy SCT027 OVC035 68 62     81%     30.06        
Dec 05 02:20 NNE 7 10 Cloudy SCT013 BKN022 OVC028 69 63     81%     30.06        
Dec 05 01:53 NE 7 10 Cloudy BKN012 OVC020 69 64     84%     30.06 30.05      
Dec 05 01:39 NNE 7 10 Cloudy SCT012 OVC020 69 64     84%     30.06        
Dec 05 00:53 NE 6 10 Cloudy OVC014 70 64     81%     30.06 30.05      
Dec 05 00:40 NE 9 10 Cloudy OVC014 70 65     84%     30.06        
Dec 05 00:05 NNE 7 10 Cloudy SCT009 OVC016 71 67     87%   72 30.05        
Dec 04 23:53 NNE 7 10 Cloudy BKN009 OVC014 71 67     87%   72 30.05 30.04      
Dec 04 23:23 N 8 10 Cloudy OVC009 71 68     90%   72 30.05        
Dec 04 23:11 N 8 10 Mostly Cloudy BKN010 71 68     90%   72 30.05        
Dec 04 22:53 N 6 10 Partly Cloudy FEW010 SCT080 71 68     90%   72 30.05 30.04      
Dec 04 21:53 NNE 3 10 Clear CLR 72 68     87%   73 30.04 30.03      
Dec 04 21:45 NNE 3 10 Partly Cloudy FEW012 SCT018 72 69     91%   73 30.04        
Dec 04 21:21 NNW 6 10 Mostly Cloudy FEW010 BKN015 72 69     91%   73 30.04        
Dec 04 20:53 NNW 6 10 Partly Cloudy SCT015 72 68     87%   73 30.03 30.02      
Dec 04 19:53 NW 5 10 Partly Cloudy SCT095 73 69     87%   74 30.02 30.01      
Dec 04 18:53 NW 5 10 Mostly Cloudy BKN080 75 70     84%   76 30 29.99      
Dec 04 17:53 W 5 10 Partly Cloudy SCT080 76 71     85%   77 29.98 29.98      
Dec 04 16:53 WSW 9 10 Clear CLR 78 71     79%   79 29.96 29.95      
Dec 04 15:53 WSW 10 10 Clear CLR 80 70     71%   83 29.95 29.94      
Dec 04 14:53 W 7 10 Mostly Clear FEW085 80 70     71%   83 29.96 29.95      
Dec 04 14:00 W 8 10 Partly Cloudy FEW020 SCT045 SCT065 80 72     76%   84 29.97        
Dec 04 13:53 W 9 10 Mostly Cloudy BKN026 BKN030 BKN060 80 72     76%   84 29.97 29.96      
Dec 04 13:22 6 10 Mostly Cloudy BKN026 BKN030 BKN060 80 71     74%   84 29.98        
Dec 04 12:53 W 11 10 Mostly Cloudy SCT026 SCT035 BKN045 82 70     67%   86 29.98 29.98      
Dec 04 11:53 WSW 11 10 Partly Cloudy SCT023 82 72     72%   87 30.01 30      
Dec 04 10:53 SW 14 10 Partly Cloudy SCT019 82 72     72%   87 30.04 30.03      
Dec 04 09:53 WSW 11 10 Partly Cloudy SCT022 80 72     76%   84 30.05 30.04      
Dec 04 09:36 WSW 10 10 Partly Cloudy SCT021 79 71     77%   82 30.05        
Dec 04 08:53 SW 6 10 Mostly Cloudy BKN022 77 72     84%   78 30.04 30.03      
Dec 04 07:53 Calm 7 Clear CLR 74 72     94%   75 30.02 30.01      
Dec 04 06:53 SW 7 8 Clear CLR 73 71     94%   74 30.01 30      
Dec 04 05:53 SW 6 5 Fog/Mist FEW029 FEW035 71 69     93%   72 29.99 29.98      
Dec 04 04:53 WSW 5 7 Mostly Cloudy BKN060 72 70     93%   73 29.99 29.98      
Dec 04 03:53 SSW 5 7 Clear CLR 71 69     93%   72 29.98 29.97      
Dec 04 02:53 SW 7 6 Fog/Mist CLR 72 70     93%   73 29.98 29.97      
Dec 04 01:53 SW 7 7 Mostly Clear FEW060 73 71     94%   74 29.98 29.98      
Dec 04 00:53 SW 7 6 Fog/Mist FEW080 73 71     94%   74 29.99 29.98      
Dec 03 23:53 SW 6 6 Fog/Mist FEW039 BKN075 73 71     94%   74 30 29.99      
Dec 03 22:53 SW 7 7 Mostly Cloudy BKN075 74 71     91%   75 30.01 30      
Dec 03 21:53 SSW 8 8 Partly Cloudy SCT070 74 71     91%   75 30 30      
Dec 03 20:53 SW 8 10 Partly Cloudy SCT065 74 71     91%   75 30 29.99      
Dec 03 19:53 SSW 9 10 Partly Cloudy SCT070 75 71     88%   76 29.99 29.98      
Dec 03 18:53 SW 8 10 Clear CLR 75 71     88%   76 29.99 29.98      
Dec 03 17:53 SW 11 10 Clear CLR 77 71     82%   78 29.97 29.96      
Dec 03 16:53 SW 11 10 Cloudy OVC070 80 72     76%   84 29.97 29.96      
Dec 03 15:53 SW 14 10 Fog/Mist FEW080 81 72     74%   85 29.97 29.96      
Dec 03 14:53 SSW 16 10 Cloudy FEW019 OVC080 81 72     74%   85 29.96 29.96      
Dec 03 13:53 SW 18 10 Mostly Cloudy BKN080 81 73     77%   86 29.97 29.96      
Dec 03 12:53 SW 21 10 Cloudy and Windy BKN060 OVC075 82 72     72%   87 29.99 29.98      
Dec 03 11:53 WSW 20 10 Mostly Clear and Windy FEW027 84 72     67%   90 30.01 30      
Dec 03 10:53 SW 17 10 Clear CLR 84 71     65%   89 30.02 30.01      
Dec 03 09:53 SSW 11 10 Mostly Clear FEW010 82 73     74%   87 30.02 30.01      
Dec 03 08:53 SSW 8 10 Mostly Clear FEW007 77 74     90%   79 30.01 30.01      
Dec 03 07:53 S 9 6 Fog/Mist SCT006 74 73     97%   76 30 29.99      
Dec 03 07:10 S 8 7 Fog/Mist SCT006 73 72     96%   75 29.99        
Dec 03 06:53 S 8 8 Mostly Cloudy BKN006 73 72     96%   75 29.99 29.98      
Dec 03 06:44 S 8 8 Mostly Cloudy BKN006 73 72     96%   75 29.99        
Dec 03 05:53 S 7 8 Clear CLR 73 71     94%   74 29.98 29.97      
Dec 03 03:53 S 8 7 Clear CLR 73 72     96%   75 29.97 29.96      
Dec 03 02:53 SSE 6 8 Clear CLR 71 70     96%   72 29.97 29.96      
Dec 03 01:53 S 6 10 Clear CLR 72 70     93%   73 29.97 29.96      
Dec 03 00:53 SSE 7 10 Clear CLR 73 70     90%   74 29.98 29.97      
Dec 02 23:53 S 8 10 Clear CLR 73 71     94%   74 29.98 29.97      
Dec 02 22:53 S 6 10 Clear CLR 73 71     94%   74 29.99 29.98      
Dec 02 21:53 S 6 10 Clear CLR 74 71     91%   75 30 29.99      
Dec 02 20:53 S 9 10 Clear CLR 75 71     88%   76 29.99 29.98      
Dec 02 19:53 S 7 10 Clear CLR 75 70     84%   76 29.99 29.98      
Dec 02 18:53 S 6 10 Clear CLR 77 69     77%   78 29.98 29.97      
Dec 02 17:53 S 7 10 Clear CLR 78 69     74%   79 29.96 29.96      
Dec 02 16:53 SW 10 10 Clear CLR 81 69     67%   84 29.95 29.95      
Dec 02 15:53 SW 14 10 Clear CLR 83 70     65%   87 29.94 29.93      
Dec 02 14:53 SW 16 10 Clear CLR 84 69     61%   88 29.95 29.94      
Dec 02 13:53 SSW 17 10 Mostly Clear FEW032 85 70     61%   89 29.95 29.94      
Dec 02 12:53 SSW 23 10 Mostly Clear and Windy FEW034 85 69     59%   89 29.97 29.96      
Dec 02 11:53 S 17 10 Partly Cloudy SCT028 85 69     59%   89 29.99 29.98      
Dec 02 10:55 S 18 10 Partly Cloudy SCT028 84 70     63%   88 30        
Dec 02 10:53 SSW 16 10 Mostly Cloudy BKN020 84 70     63%   88 30.01 30      
Dec 02 10:29 SSW 14 10 Mostly Cloudy BKN020 83 71     67%   88 30        
Dec 02 10:22 S 17 10 Partly Cloudy SCT020 82 71     69%   86 30        
Dec 02 10:05 SSW 11 10 Mostly Cloudy BKN018 BKN023 82 73     74%   87 30.01        
Dec 02 09:53 SSW 13 10 Partly Cloudy SCT017 81 73     77%   86 30.01 30.01      
Dec 02 08:53 S 10 10 Clear CLR 77 72     84%   78 29.99 29.98      
Dec 02 08:00 S 9 10 Mostly Clear FEW006 74 72     94%   75 29.98        
Dec 02 07:53 S 8 10 Clear CLR 74 72     94%   75 29.98 29.97      
Dec 02 06:53 SSE 9 9 Clear CLR 72 70     93%   73 29.95 29.94      
Dec 02 05:53 SSE 9 10 Clear CLR 72 70     93%   73 29.94 29.93      
Dec 02 04:53 S 9 10 Clear CLR 72 70     93%   73 29.94 29.93      
Dec 02 03:53 S 13 10 Clear CLR 72 69     91%   73 29.94 29.93      
Dec 02 02:53 S 9 10 Clear CLR 71 68     90%   72 29.94 29.93      
Dec 02 01:53 SSE 8 10 Clear CLR 71 68     90%   72 29.96 29.95      
Dec 02 00:53 SSE 10 10 Clear CLR 72 67     84%   73 29.96 29.95      
Dec 01 23:53 SSE 9 10 Clear CLR 72 67     84%   73 29.97 29.96      
Dec 01 22:53 SSE 7 10 Clear CLR 72 67     84%   73 29.98 29.97      
Dec 01 21:53 SSE 8 10 Clear CLR 74 67     79%   75 29.98 29.97      
Dec 01 20:53 SSE 9 10 Clear CLR 74 68     82%   75 29.97 29.96      
Dec 01 19:53 S 9 10 Clear CLR 76 67     74%   77 29.97 29.96      
Dec 01 18:53 S 9 10 Mostly Clear FEW090 76 67     74%   77 29.96 29.95      
Dec 01 17:53 S 11 10 Partly Cloudy SCT085 77 67     71%   78 29.95 29.94      
Dec 01 16:53 S 17 10 Mostly Clear FEW080 78 67     69%   79 29.95 29.94      
Dec 01 15:53 S 16 10 Mostly Clear FEW085 80 67     64%   82 29.94 29.93      
Dec 01 14:53 S 16 10 Partly Cloudy SCT035 82 66     58%   84 29.94 29.93      
Dec 01 13:53 S 14 10 Partly Cloudy SCT038 84 66     55%   86 29.95 29.94      
Dec 01 12:53 S 13 10 Mostly Clear FEW038 82 66     58%   84 29.96 29.96      
Dec 01 11:53 S 17 10 Mostly Clear FEW036 82 66     58%   84 29.99 29.98      
Dec 01 10:53 SSE 18 10 Partly Cloudy SCT034 80 66     62%   82 30 29.99      
Dec 01 09:53 SSE 14 10 Clear CLR 76 66     71%   77 30.03 30.02      
Dec 01 08:53 SE 9 10 Clear CLR 73 65     76%   74 30.02 30.01      
Dec 01 07:53 SE 10 10 Clear CLR 70 63     78%     30 29.99      
Dec 01 06:53 ESE 6 10 Mostly Cloudy BKN032 67 62     84%     30 29.99      
Dec 01 05:53 E 7 10 Partly Cloudy SCT110 66 62     87%     29.99 29.98      
Dec 01 04:53 ESE 7 10 Mostly Cloudy BKN110 68 62     81%     29.99 29.98      
Dec 01 03:53 ESE 7 10 Mostly Clear FEW100 68 62     81%     29.99 29.98      
Dec 01 02:53 ESE 9 10 Partly Cloudy SCT120 67 61     81%     29.99 29.98      
Dec 01 01:53 E 8 10 Partly Cloudy SCT120 67 60     79%     30.02 30.01      
Dec 01 00:53 E 7 10 Clear CLR 67 59     76%     30.04 30.03     0
Nov 30 23:53 E 6 10 Clear CLR 66 59     78%     30.06 30.05      
Nov 30 22:53 ESE 7 10 Mostly Clear FEW120 67 58     73%     30.06 30.05      
Nov 30 21:53 E 7 10 Clear CLR 67 59     76%     30.06 30.06   0  
Nov 30 20:53 ESE 6 10 Partly Cloudy FEW065 FEW090 SCT110 68 59     73%     30.08 30.07 0    
Nov 30 19:53 ESE 7 10 Clear CLR 68 60     76%     30.08 30.07 0    
Nov 30 18:53 ESE 6 10 Clear CLR 70 60     71%     30.08 30.07      
Nov 30 17:53 ESE 5 10 Clear CLR 71 60     68%   71 30.07 30.06      
Nov 30 16:53 SE 5 10 Clear CLR 73 60     64%   73 30.06 30.05      
Nov 30 15:53 SE 3 10 Clear CLR 74 59     60%   74 30.07 30.06      
Nov 30 14:53 ESE 7 10 Clear CLR 74 58     57%   74 30.07 30.06      
Nov 30 13:53 SE 9 10 Clear CLR 75 58     55%   75 30.07 30.06      
Nov 30 12:53 SE 10 10 Clear CLR 75 58     55%   75 30.1 30.09      
Nov 30 11:53 ESE 9 10 Clear CLR 75 58     55%   75 30.13 30.12      
Nov 30 10:53 ESE 9 10 Clear CLR 72 57     59%   72 30.16 30.15      
Nov 30 09:53 3 10 Clear CLR 66 56     70%     30.19 30.18      
Nov 30 08:53 ENE 8 10 Clear CLR 62 54     75%     30.18 30.17      
Nov 30 07:53 ENE 7 10 Clear CLR 59        %     30.17 30.16      
May 15 12:18 SSW 10 10 Light Rain SCT035 BKN044 BKN055 84 73     70%   90 29.98   0    
May 15 03:53 SSE 6 10 Clear CLR 72 71     97%   73 29.91 29.9      
May 14 11:41 S 7 10 Light Rain SCT040 BKN046 OVC090 77 76     96%   79 29.93   0    
May 13 21:53 ENE 9 10 Light Rain BKN120 71 71     100%   73 30.01 30 0    
May 13 16:53 E 7 5 Rain and Fog/Mist FEW032 OVC100 72 72     100%   74 30.01 30 0 0  
May 13 12:53 E 7 5 Clear   73 72     96%   75 30.05 30.04 0    
May 13 12:39 ENE 11 6 Light Rain and Fog/Mist FEW005 BKN037 OVC060 73 73     100%   75 30.04   0    
May 13 12:15 E 16 2.5 Heavy Rain and Fog/Mist OVC027 75 73     94%   77 30.05   0    
May 12 08:53 Calm 10 Cloudy OVC110 74 66     76%   75 30.13 30.12      
May 12 07:53 ENE 9 10 Smoke OVC110 70 64     81%     30.09 30.08     0
May 12 03:53 Calm 5 Haze BKN110 72 61     68%   72 30.07 30.06      
May 11 14:53 E 14 10 Clear CLR 88 59     38%   87 30.06 30.05      
Jun 11 00:53 E 9 10 Clear CLR 76 74     94%   78 30.08 30.08      
Jun 10 23:53 E 7 10 Clear CLR 75 74     96%   77 30.09 30.08      
Jun 10 18:53 ENE 10 10 Clear   79 75     88%   83 30.06 30.05      
Notice The following observation data may not be complete
Jun 10 10:04   2 Heavy Rain and Fog/Mist BKN046 BKN060 OVC075          %         0    
Jun 10 08:36 ESE 9 9 Light Rain SCT029 BKN035 OVC043 75 72     90%   76 30.02   0    
Jun 09 10:53 ENE 5 10 Mostly Clear FEW019 83 72     70%   88 29.95 29.94      
Jun 08 17:53 WSW 14 10 Mostly Cloudy SCT028 BKN041 BKN048 84 72     67%   90 29.78 29.77      
Jun 08 16:00 W 13 10 Cloudy FEW033 BKN047 OVC055 84 72     67%   90 29.79        
Jun 07 16:53 S 11 2.5 Thunderstorms and Heavy Rain and Fog/Mist OVC028 73 72     96%   75 29.8 29.79 0 3  
Jun 07 16:11 SSW 11 2.5 Heavy Rain and Fog/Mist BKN007 OVC028 73 71     94%   74 29.82   0    
Jun 07 13:53 SW 14 1 Thunderstorms and Heavy Rain and Fog/Mist BKN012 BKN025 OVC041 70 69     97%     29.84 29.83 1   1
Jun 07 12:53 S 14 10 Thunderstorms and Rain FEW027 BKN037 OVC055 82 72     72%   87 29.8 29.79 0    
Jun 07 11:53 SSW 20 10 Clear and Windy   83 73     72%   89 29.81 29.8 0    
Jun 06 10:53 SSE 11 10 Light Rain FEW037 FEW045 OVC055 75 73     94%   77 29.87 29.86 0 0  
Jun 06 00:53 SSE 8 10 Mostly Cloudy FEW011 SCT044 BKN070 75 73     94%   77 29.9 29.89 0    
Jun 05 23:53 SSE 10 10 Light Rain FEW007 BKN100 OVC120 75 73     94%   77 29.91 29.9 0